STARLINK-4654 (53614 NORAD) Tracking and Keplerian Element Data

This shows tracking and keplerian element data for the satellite.

Feedback or suggestion? Click here.




ElementValue
Catalog53614
NameSTARLINK-4654
Epoch Orbit56
Epoch Day243.58334491
Epoch Year2022
RAAN271.4719
Inclination53.2179
Eccentricity0.0075172
Argument of Perigee55.1447
Mean Anonmoly253.3172
Mean Motion15.98021498
Decay Rate0.00236092
L11 53614U 22104AC 22243.58334491 .00236092 33813-4 37099-3 0 9993
L22 53614 53.2179 271.4719 0075172 55.1447 253.3172 15.98021498 568



Live tracking and technical data element details for STARLINK-4654 (NORAD 53614). STARLINK-4654 can be tracked NOW for your location showing map with azimuth and elevation plus other details from your city location.







IsCatalogInMostPopularTable: catalog: 53614, numindb: -1

Insert: records affected: 1


GetName: 53614 STARLINK-4654

Hit Count: inserted at: Thu, 08 Dec 2022 19:55:07 GMT